Location: Adamstown South Public School
(32.9318°S, 151.7012°E)
Time: 17:28:10
(UTC+00:00)

OAO 2 Rocket - Pass Details

Date: 07 June 2020
Orbit: 676 x 746 km, 35.0° (Epoch: 05 July)

Event Time Altitude Azimuth Distance (km) Brightness Sun altitude
Rises 08:56:06 0° 313° (NW) 3,172 7.6 -25.1°
Reaches altitude 10° 08:58:42 10° 321° (NW) 2,255 6.6 -25.6°
Enters shadow 09:03:02 36° 13° (NNE) 1,163 4.3 -26.5°
